Time,TemperatureF,DewpointF,PressureIn,WindDirection,WindDirectionDegrees,WindSpeedMPH,WindSpeedGustMPH,Humidity,HourlyPrecipIn,Conditions,Clouds,dailyrainin,SoftwareType,DateUTC
2013-02-15 02:40:00,36.3,28.8,29.98,WSW,248,0.0,2.0,74,0.00,,,0.00,Wunderground v.1.13,2013-02-15 07:40:00,
2013-02-15 02:45:00,36.2,28.4,29.98,WSW,248,1.0,7.0,73,0.00,,,0.00,Wunderground v.1.13,2013-02-15 07:45:00,
2013-02-15 02:50:00,36.1,28.6,29.98,N/A,-737280,0.0,0.0,74,0.00,,,0.00,Wunderground v.1.13,2013-02-15 07:50:00,
2013-02-15 02:55:00,35.7,28.6,29.98,West,270,0.0,1.0,75,0.00,,,0.00,Wunderground v.1.13,2013-02-15 07:55:00,
2013-02-15 03:00:00,35.4,28.3,29.98,West,270,0.0,1.0,75,0.00,,,0.00,Wunderground v.1.13,2013-02-15 08:00:00,
2013-02-15 03:05:00,35.0,27.9,29.99,NNE,23,0.0,2.0,75,0.00,,,0.00,Wunderground v.1.13,2013-02-15 08:05:00,
2013-02-15 03:10:00,34.6,27.5,29.99,NNE,23,0.0,5.0,75,0.00,,,0.00,Wunderground v.1.13,2013-02-15 08:10:00,
2013-02-15 03:15:00,34.6,27.5,29.99,WSW,248,0.0,4.0,75,0.00,,,0.00,Wunderground v.1.13,2013-02-15 08:15:00,
2013-02-15 03:20:00,34.5,27.7,29.99,NW,315,0.0,1.0,76,0.00,,,0.00,Wunderground v.1.13,2013-02-15 08:20:00,
2013-02-15 03:25:00,34.4,27.6,30.00,N/A,-737280,0.0,0.0,76,0.00,,,0.00,Wunderground v.1.13,2013-02-15 08:25:00,
2013-02-15 03:30:00,34.4,27.6,30.00,N/A,-737280,0.0,0.0,76,0.00,,,0.00,Wunderground v.1.13,2013-02-15 08:30:00,
2013-02-15 03:35:00,34.1,27.6,30.00,N/A,-737280,0.0,0.0,77,0.00,,,0.00,Wunderground v.1.13,2013-02-15 08:35:00,
2013-02-15 03:40:00,33.9,27.4,30.00,N/A,-737280,0.0,0.0,77,0.00,,,0.00,Wunderground v.1.13,2013-02-15 08:40:00,
2013-02-15 03:45:00,33.7,27.3,30.00,N/A,-737280,0.0,0.0,77,0.00,,,0.00,Wunderground v.1.13,2013-02-15 08:45:00,
2013-02-15 03:50:00,33.6,27.5,30.00,N/A,-737280,0.0,0.0,78,0.00,,,0.00,Wunderground v.1.13,2013-02-15 08:50:00,
2013-02-15 03:55:00,33.5,27.4,30.00,N/A,-737280,0.0,0.0,78,0.00,,,0.00,Wunderground v.1.13,2013-02-15 08:55:00,
2013-02-15 04:00:00,33.4,27.3,30.00,N/A,-737280,0.0,0.0,78,0.00,,,0.00,Wunderground v.1.13,2013-02-15 09:00:00,
2013-02-15 04:05:00,33.3,27.2,30.00,N/A,-737280,0.0,0.0,78,0.00,,,0.00,Wunderground v.1.13,2013-02-15 09:05:00,
2013-02-15 04:10:00,33.1,27.0,30.00,N/A,-737280,0.0,0.0,78,0.00,,,0.00,Wunderground v.1.13,2013-02-15 09:10:00,
2013-02-15 04:15:00,33.0,27.2,30.00,N/A,-737280,0.0,0.0,79,0.00,,,0.00,Wunderground v.1.13,2013-02-15 09:15:00,
2013-02-15 04:20:00,32.8,27.0,30.01,N/A,-737280,0.0,0.0,79,0.00,,,0.00,Wunderground v.1.13,2013-02-15 09:20:00,
2013-02-15 04:25:00,32.6,26.8,30.01,N/A,-737280,0.0,0.0,79,0.00,,,0.00,Wunderground v.1.13,2013-02-15 09:25:00,
2013-02-15 04:30:00,32.3,26.5,30.01,N/A,-737280,0.0,0.0,79,0.00,,,0.00,Wunderground v.1.13,2013-02-15 09:30:00,
2013-02-15 04:35:00,32.1,26.6,30.01,N/A,-737280,0.0,0.0,80,0.00,,,0.00,Wunderground v.1.13,2013-02-15 09:35:00,
2013-02-15 04:40:00,31.9,26.4,30.01,N/A,-737280,0.0,0.0,80,0.00,,,0.00,Wunderground v.1.13,2013-02-15 09:40:00,
2013-02-15 04:45:00,31.7,26.5,30.02,N/A,-737280,0.0,0.0,81,0.00,,,0.00,Wunderground v.1.13,2013-02-15 09:45:00,
2013-02-15 04:50:00,31.6,26.4,30.02,N/A,-737280,0.0,0.0,81,0.00,,,0.00,Wunderground v.1.13,2013-02-15 09:50:00,
2013-02-15 04:55:00,31.5,26.6,30.02,N/A,-737280,0.0,0.0,82,0.00,,,0.00,Wunderground v.1.13,2013-02-15 09:55:00,
2013-02-15 05:00:00,31.4,26.5,30.02,N/A,-737280,0.0,0.0,82,0.00,,,0.00,Wunderground v.1.13,2013-02-15 10:00:00,
2013-02-15 05:05:00,31.4,26.5,30.02,N/A,-737280,0.0,0.0,82,0.00,,,0.00,Wunderground v.1.13,2013-02-15 10:05:00,
2013-02-15 05:10:00,31.4,26.8,30.02,NW,315,0.0,1.0,83,0.00,,,0.00,Wunderground v.1.13,2013-02-15 10:10:00,
2013-02-15 05:15:00,31.4,27.1,30.02,N/A,-737280,0.0,0.0,84,0.00,,,0.00,Wunderground v.1.13,2013-02-15 10:15:00,
2013-02-15 05:20:00,31.4,27.1,30.03,NW,315,0.0,1.0,84,0.00,,,0.00,Wunderground v.1.13,2013-02-15 10:20:00,
2013-02-15 05:30:00,31.5,27.2,30.03,N/A,-737280,0.0,0.0,84,0.00,,,0.00,Wunderground v.1.13,2013-02-15 10:30:00,
2013-02-15 05:35:00,31.5,27.5,30.03,N/A,-737280,0.0,0.0,85,0.00,,,0.00,Wunderground v.1.13,2013-02-15 10:35:00,
2013-02-15 05:40:00,31.6,27.6,30.03,N/A,-737280,0.0,0.0,85,0.00,,,0.00,Wunderground v.1.13,2013-02-15 10:40:00,
2013-02-15 05:45:00,31.6,27.6,30.03,N/A,-737280,0.0,0.0,85,0.00,,,0.00,Wunderground v.1.13,2013-02-15 10:45:00,
2013-02-15 05:50:00,31.6,27.6,30.03,N/A,-737280,0.0,0.0,85,0.00,,,0.00,Wunderground v.1.13,2013-02-15 10:50:00,
2013-02-15 05:55:00,31.7,27.7,30.03,NW,315,0.0,1.0,85,0.00,,,0.00,Wunderground v.1.13,2013-02-15 10:55:00,
2013-02-15 06:00:00,31.9,27.9,30.03,NW,315,0.0,1.0,85,0.00,,,0.00,Wunderground v.1.13,2013-02-15 11:00:00,
2013-02-15 06:05:00,31.9,27.9,30.03,N/A,-737280,0.0,0.0,85,0.00,,,0.00,Wunderground v.1.13,2013-02-15 11:05:00,
2013-02-15 06:10:00,32.0,28.0,30.03,NW,315,0.0,1.0,85,0.00,,,0.00,Wunderground v.1.13,2013-02-15 11:10:00,
2013-02-15 06:15:00,32.0,28.0,30.04,N/A,-737280,0.0,0.0,85,0.00,,,0.00,Wunderground v.1.13,2013-02-15 11:15:00,
2013-02-15 06:20:00,32.0,28.0,30.03,N/A,-737280,0.0,0.0,85,0.00,,,0.00,Wunderground v.1.13,2013-02-15 11:20:00,
2013-02-15 06:25:00,32.1,28.1,30.04,N/A,-737280,0.0,0.0,85,0.00,,,0.00,Wunderground v.1.13,2013-02-15 11:25:00,
2013-02-15 06:30:00,32.2,28.5,30.04,NW,315,0.0,1.0,86,0.00,,,0.00,Wunderground v.1.13,2013-02-15 11:30:00,
2013-02-15 06:35:00,32.3,28.6,30.05,N/A,-737280,0.0,0.0,86,0.00,,,0.00,Wunderground v.1.13,2013-02-15 11:35:00,
2013-02-15 06:40:00,32.4,28.4,30.05,N/A,-737280,0.0,0.0,85,0.00,,,0.00,Wunderground v.1.13,2013-02-15 11:40:00,
2013-02-15 06:45:00,32.6,28.6,30.05,N/A,-737280,0.0,0.0,85,0.00,,,0.00,Wunderground v.1.13,2013-02-15 11:45:00,
2013-02-15 06:50:00,32.8,29.1,30.05,N/A,-737280,0.0,0.0,86,0.00,,,0.00,Wunderground v.1.13,2013-02-15 11:50:00,
2013-02-15 07:00:00,33.0,29.0,30.05,NW,315,0.0,1.0,85,0.00,,,0.00,Wunderground v.1.13,2013-02-15 12:00:00,
2013-02-15 07:05:00,33.2,29.2,30.05,N/A,-737280,0.0,0.0,85,0.00,,,0.00,Wunderground v.1.13,2013-02-15 12:05:00,
2013-02-15 07:10:00,33.4,29.4,30.05,NW,315,0.0,3.0,85,0.00,,,0.00,Wunderground v.1.13,2013-02-15 12:10:00,
2013-02-15 07:15:00,33.7,29.7,30.06,South,180,0.0,2.0,85,0.00,,,0.00,Wunderground v.1.13,2013-02-15 12:15:00,
2013-02-15 07:20:00,34.0,29.7,30.06,West,270,0.0,3.0,84,0.00,,,0.00,Wunderground v.1.13,2013-02-15 12:20:00,
2013-02-15 07:25:00,34.4,30.1,30.06,WSW,248,0.0,3.0,84,0.00,,,0.00,Wunderground v.1.13,2013-02-15 12:25:00,
2013-02-15 07:30:00,34.6,29.7,30.06,WSW,248,1.0,4.0,82,0.00,,,0.00,Wunderground v.1.13,2013-02-15 12:30:00,
2013-02-15 07:35:00,35.1,29.6,30.06,WSW,248,1.0,4.0,80,0.00,,,0.00,Wunderground v.1.13,2013-02-15 12:35:00,
2013-02-15 07:40:00,35.4,29.8,30.06,WSW,248,0.0,3.0,80,0.00,,,0.00,Wunderground v.1.13,2013-02-15 12:40:00,
2013-02-15 07:45:00,35.6,30.0,30.06,WSW,248,0.0,2.0,80,0.00,,,0.00,Wunderground v.1.13,2013-02-15 12:45:00,
2013-02-15 07:50:00,35.9,29.7,30.06,WSW,248,1.0,5.0,78,0.00,,,0.00,Wunderground v.1.13,2013-02-15 12:50:00,
2013-02-15 07:55:00,36.2,29.7,30.06,WSW,248,2.0,4.0,77,0.00,,,0.00,Wunderground v.1.13,2013-02-15 12:55:00,
2013-02-15 08:00:00,36.3,29.8,30.06,WSW,248,2.0,6.0,77,0.00,,,0.00,Wunderground v.1.13,2013-02-15 13:00:00,
2013-02-15 08:05:00,36.5,30.0,30.06,SW,225,2.0,5.0,77,0.00,,,0.00,Wunderground v.1.13,2013-02-15 13:05:00,
2013-02-15 08:10:00,36.6,29.7,30.06,WSW,248,2.0,6.0,76,0.00,,,0.00,Wunderground v.1.13,2013-02-15 13:10:00,
2013-02-15 08:15:00,36.8,29.9,30.06,WSW,248,2.0,6.0,76,0.00,,,0.00,Wunderground v.1.13,2013-02-15 13:15:00,
2013-02-15 08:20:00,36.8,29.9,30.06,WSW,248,2.0,7.0,76,0.00,,,0.00,Wunderground v.1.13,2013-02-15 13:20:00,
2013-02-15 08:25:00,37.0,30.1,30.06,WSW,248,1.0,3.0,76,0.00,,,0.00,Wunderground v.1.13,2013-02-15 13:25:00,
2013-02-15 08:30:00,37.3,30.4,30.06,WSW,248,2.0,6.0,76,0.00,,,0.00,Wunderground v.1.13,2013-02-15 13:30:00,
2013-02-15 08:35:00,37.4,30.2,30.06,SSW,203,2.0,7.0,75,0.00,,,0.00,Wunderground v.1.13,2013-02-15 13:35:00,
2013-02-15 08:40:00,37.8,30.6,30.06,SW,225,2.0,5.0,75,0.00,,,0.00,Wunderground v.1.13,2013-02-15 13:40:00,
2013-02-15 08:45:00,38.2,30.6,30.06,WSW,248,3.0,8.0,74,0.00,,,0.00,Wunderground v.1.13,2013-02-15 13:45:00,
2013-02-15 08:50:00,38.4,31.2,30.05,WSW,248,1.0,8.0,75,0.00,,,0.00,Wunderground v.1.13,2013-02-15 13:50:00,
2013-02-15 08:55:00,38.7,31.1,30.05,WSW,248,1.0,5.0,74,0.00,,,0.00,Wunderground v.1.13,2013-02-15 13:55:00,
2013-02-15 09:00:00,38.8,30.9,30.05,WSW,248,2.0,8.0,73,0.00,,,0.00,Wunderground v.1.13,2013-02-15 14:00:00,
2013-02-15 09:05:00,38.6,30.4,30.05,SW,225,3.0,8.0,72,0.00,,,0.00,Wunderground v.1.13,2013-02-15 14:05:00,
2013-02-15 09:10:00,38.6,31.0,30.06,WSW,248,2.0,7.0,74,0.00,,,0.00,Wunderground v.1.13,2013-02-15 14:10:00,
2013-02-15 09:15:00,38.6,30.7,30.06,WSW,248,3.0,8.0,73,0.00,,,0.00,Wunderground v.1.13,2013-02-15 14:15:00,
2013-02-15 09:20:00,38.8,30.5,30.06,WSW,248,3.0,6.0,72,0.00,,,0.00,Wunderground v.1.13,2013-02-15 14:20:00,
2013-02-15 09:25:00,38.8,30.5,30.06,WSW,248,3.0,8.0,72,0.00,,,0.00,Wunderground v.1.13,2013-02-15 14:25:00,
2013-02-15 09:30:00,39.2,30.9,30.06,WSW,248,1.0,5.0,72,0.00,,,0.00,Wunderground v.1.13,2013-02-15 14:30:00,
2013-02-15 09:35:00,39.2,30.2,30.06,WSW,248,4.0,11.0,70,0.00,,,0.00,Wunderground v.1.13,2013-02-15 14:35:00,
2013-02-15 09:40:00,39.2,30.2,30.06,WSW,248,2.0,9.0,70,0.00,,,0.00,Wunderground v.1.13,2013-02-15 14:40:00,
2013-02-15 09:45:00,39.1,30.1,30.06,WSW,248,3.0,8.0,70,0.00,,,0.00,Wunderground v.1.13,2013-02-15 14:45:00,
2013-02-15 09:50:00,39.1,30.1,30.06,WSW,248,2.0,5.0,70,0.00,,,0.00,Wunderground v.1.13,2013-02-15 14:50:00,
2013-02-15 09:55:00,39.1,30.1,30.06,WSW,248,3.0,10.0,70,0.00,,,0.00,Wunderground v.1.13,2013-02-15 14:55:00,
2013-02-15 10:00:00,39.1,29.8,30.06,SW,225,3.0,9.0,69,0.00,,,0.00,Wunderground v.1.13,2013-02-15 15:00:00,
2013-02-15 10:05:00,39.1,29.4,30.06,WSW,248,3.0,8.0,68,0.00,,,0.00,Wunderground v.1.13,2013-02-15 15:05:00,
2013-02-15 10:10:00,39.2,29.2,30.06,WSW,248,3.0,10.0,67,0.00,,,0.00,Wunderground v.1.13,2013-02-15 15:10:00,
2013-02-15 10:15:00,39.2,29.5,30.06,SW,225,3.0,8.0,68,0.00,,,0.00,Wunderground v.1.13,2013-02-15 15:15:00,
2013-02-15 10:20:00,39.0,29.7,30.05,WSW,248,4.0,11.0,69,0.00,,,0.00,Wunderground v.1.13,2013-02-15 15:20:00,
2013-02-15 10:25:00,38.9,29.6,30.05,WSW,248,4.0,11.0,69,0.00,,,0.00,Wunderground v.1.13,2013-02-15 15:25:00,
2013-02-15 10:30:00,38.9,29.6,30.05,WSW,248,3.0,8.0,69,0.00,,,0.00,Wunderground v.1.13,2013-02-15 15:30:00,
2013-02-15 10:35:00,39.2,29.5,30.05,WSW,248,2.0,9.0,68,0.00,,,0.00,Wunderground v.1.13,2013-02-15 15:35:00,
2013-02-15 10:40:00,39.5,30.2,30.05,WSW,248,3.0,9.0,69,0.00,,,0.00,Wunderground v.1.13,2013-02-15 15:40:00,
2013-02-15 10:45:00,39.5,29.1,30.04,WSW,248,3.0,11.0,66,0.00,,,0.00,Wunderground v.1.13,2013-02-15 15:45:00,
2013-02-15 10:50:00,39.5,28.7,30.04,WSW,248,3.0,7.0,65,0.00,,,0.00,Wunderground v.1.13,2013-02-15 15:50:00,
2013-02-15 10:55:00,39.3,28.9,30.04,WSW,248,3.0,7.0,66,0.00,,,0.00,Wunderground v.1.13,2013-02-15 15:55:00,
2013-02-15 11:00:00,39.4,29.0,30.04,WSW,248,2.0,6.0,66,0.00,,,0.00,Wunderground v.1.13,2013-02-15 16:00:00,
2013-02-15 11:05:00,39.5,29.4,30.04,WSW,248,2.0,6.0,67,0.00,,,0.00,Wunderground v.1.13,2013-02-15 16:05:00,
2013-02-15 11:10:00,39.6,28.8,30.03,SW,225,3.0,9.0,65,0.00,,,0.00,Wunderground v.1.13,2013-02-15 16:10:00,
2013-02-15 11:15:00,39.5,28.7,30.03,WSW,248,3.0,9.0,65,0.00,,,0.00,Wunderground v.1.13,2013-02-15 16:15:00,
2013-02-15 11:20:00,39.5,28.7,30.03,WSW,248,1.0,6.0,65,0.00,,,0.00,Wunderground v.1.13,2013-02-15 16:20:00,
2013-02-15 11:25:00,39.5,28.7,30.03,WSW,248,2.0,5.0,65,0.00,,,0.00,Wunderground v.1.13,2013-02-15 16:25:00,
2013-02-15 11:30:00,39.5,28.7,30.03,SW,225,2.0,10.0,65,0.00,,,0.00,Wunderground v.1.13,2013-02-15 16:30:00,
2013-02-15 11:35:00,39.6,29.2,30.03,WSW,248,3.0,9.0,66,0.00,,,0.00,Wunderground v.1.13,2013-02-15 16:35:00,
2013-02-15 11:40:00,39.5,29.1,30.02,WSW,248,3.0,9.0,66,0.00,,,0.00,Wunderground v.1.13,2013-02-15 16:40:00,
2013-02-15 11:45:00,39.3,28.9,30.03,SW,225,2.0,7.0,66,0.00,,,0.00,Wunderground v.1.13,2013-02-15 16:45:00,
2013-02-15 11:50:00,39.3,29.3,30.02,SW,225,4.0,10.0,67,0.00,,,0.00,Wunderground v.1.13,2013-02-15 16:50:00,
2013-02-15 11:55:00,39.2,29.9,30.02,WSW,248,3.0,8.0,69,0.00,,,0.00,Wunderground v.1.13,2013-02-15 16:55:00,
2013-02-15 12:00:00,39.3,29.6,30.02,SW,225,1.0,4.0,68,0.00,,,0.00,Wunderground v.1.13,2013-02-15 17:00:00,
2013-02-15 12:05:00,39.3,30.0,30.02,WSW,248,1.0,5.0,69,0.00,,,0.00,Wunderground v.1.13,2013-02-15 17:05:00,
2013-02-15 12:10:00,39.2,29.9,30.02,WSW,248,2.0,6.0,69,0.00,,,0.00,Wunderground v.1.13,2013-02-15 17:10:00,
2013-02-15 12:15:00,39.0,29.7,30.02,WSW,248,1.0,5.0,69,0.00,,,0.00,Wunderground v.1.13,2013-02-15 17:15:00,
2013-02-15 12:20:00,38.8,29.5,30.01,South,180,1.0,4.0,69,0.00,,,0.00,Wunderground v.1.13,2013-02-15 17:20:00,
2013-02-15 12:25:00,38.8,29.5,30.02,WSW,248,2.0,5.0,69,0.00,,,0.00,Wunderground v.1.13,2013-02-15 17:25:00,
2013-02-15 12:30:00,38.8,29.8,30.01,WSW,248,2.0,5.0,70,0.00,,,0.00,Wunderground v.1.13,2013-02-15 17:30:00,
2013-02-15 12:35:00,38.8,29.8,30.01,WSW,248,2.0,5.0,70,0.00,,,0.00,Wunderground v.1.13,2013-02-15 17:35:00,
2013-02-15 12:40:00,38.9,29.9,30.02,WSW,248,1.0,6.0,70,0.00,,,0.00,Wunderground v.1.13,2013-02-15 17:40:00,
2013-02-15 12:45:00,38.8,30.2,30.01,WSW,248,2.0,7.0,71,0.00,,,0.00,Wunderground v.1.13,2013-02-15 17:45:00,
2013-02-15 12:50:00,38.7,30.1,30.01,WSW,248,1.0,4.0,71,0.00,,,0.00,Wunderground v.1.13,2013-02-15 17:50:00,
2013-02-15 12:55:00,38.7,30.1,30.01,WSW,248,2.0,5.0,71,0.00,,,0.00,Wunderground v.1.13,2013-02-15 17:55:00,
2013-02-15 13:00:00,38.6,30.4,30.01,WSW,248,2.0,5.0,72,0.00,,,0.00,Wunderground v.1.13,2013-02-15 18:00:00,
2013-02-15 13:05:00,38.5,29.9,30.01,SW,225,2.0,6.0,71,0.00,,,0.00,Wunderground v.1.13,2013-02-15 18:05:00,
2013-02-15 13:10:00,38.6,30.4,30.01,WSW,248,1.0,4.0,72,0.00,,,0.00,Wunderground v.1.13,2013-02-15 18:10:00,
2013-02-15 13:15:00,38.7,30.4,30.01,WSW,248,2.0,8.0,72,0.00,,,0.00,Wunderground v.1.13,2013-02-15 18:15:00,
2013-02-15 13:20:00,38.8,30.2,30.01,WSW,248,2.0,6.0,71,0.00,,,0.00,Wunderground v.1.13,2013-02-15 18:20:00,
2013-02-15 13:25:00,38.8,30.5,30.01,WSW,248,2.0,6.0,72,0.00,,,0.00,Wunderground v.1.13,2013-02-15 18:25:00,
2013-02-15 13:30:00,38.6,30.4,30.01,WSW,248,1.0,5.0,72,0.00,,,0.00,Wunderground v.1.13,2013-02-15 18:30:00,
2013-02-15 13:35:00,38.5,30.6,30.01,WSW,248,1.0,5.0,73,0.00,,,0.00,Wunderground v.1.13,2013-02-15 18:35:00,
2013-02-15 13:40:00,38.4,30.5,30.01,WSW,248,2.0,9.0,73,0.00,,,0.00,Wunderground v.1.13,2013-02-15 18:40:00,
2013-02-15 13:45:00,38.4,30.5,30.01,SW,225,1.0,7.0,73,0.00,,,0.00,Wunderground v.1.13,2013-02-15 18:45:00,
2013-02-15 13:50:00,38.3,30.4,30.01,WSW,248,2.0,5.0,73,0.00,,,0.00,Wunderground v.1.13,2013-02-15 18:50:00,
2013-02-15 13:55:00,38.3,30.4,30.01,WSW,248,1.0,5.0,73,0.00,,,0.00,Wunderground v.1.13,2013-02-15 18:55:00,
2013-02-15 14:00:00,38.3,30.7,30.01,WSW,248,2.0,7.0,74,0.00,,,0.00,Wunderground v.1.13,2013-02-15 19:00:00,
2013-02-15 14:05:00,38.2,31.3,30.01,SSW,203,1.0,4.0,76,0.00,,,0.00,Wunderground v.1.13,2013-02-15 19:05:00,
2013-02-15 14:10:00,38.2,31.3,30.01,SW,225,1.0,3.0,76,0.00,,,0.00,Wunderground v.1.13,2013-02-15 19:10:00,
2013-02-15 14:15:00,38.0,31.1,30.01,SW,225,1.0,5.0,76,0.00,,,0.00,Wunderground v.1.13,2013-02-15 19:15:00,
2013-02-15 14:20:00,37.9,31.0,30.01,South,180,1.0,4.0,76,0.00,,,0.00,Wunderground v.1.13,2013-02-15 19:20:00,
2013-02-15 14:25:00,37.9,31.0,30.01,WSW,248,2.0,4.0,76,0.00,,,0.00,Wunderground v.1.13,2013-02-15 19:25:00,
2013-02-15 14:30:00,37.9,31.3,30.01,WSW,248,1.0,4.0,77,0.00,,,0.00,Wunderground v.1.13,2013-02-15 19:30:00,
2013-02-15 14:35:00,37.9,31.7,30.01,SW,225,1.0,4.0,78,0.00,,,0.00,Wunderground v.1.13,2013-02-15 19:35:00,
2013-02-15 14:40:00,37.6,31.7,30.02,WSW,248,1.0,6.0,79,0.00,,,0.00,Wunderground v.1.13,2013-02-15 19:40:00,
2013-02-15 14:45:00,37.5,31.6,30.02,West,270,0.0,4.0,79,0.00,,,0.00,Wunderground v.1.13,2013-02-15 19:45:00,
2013-02-15 14:50:00,37.1,31.2,30.02,SW,225,2.0,7.0,79,0.00,,,0.00,Wunderground v.1.13,2013-02-15 19:50:00,
2013-02-15 14:55:00,36.9,31.3,30.02,WSW,248,1.0,3.0,80,0.00,,,0.00,Wunderground v.1.13,2013-02-15 19:55:00,
2013-02-15 15:00:00,36.7,31.4,30.02,WSW,248,1.0,5.0,81,0.00,,,0.00,Wunderground v.1.13,2013-02-15 20:00:00,
2013-02-15 15:05:00,36.6,31.6,30.02,West,270,0.0,2.0,82,0.00,,,0.00,Wunderground v.1.13,2013-02-15 20:05:00,
2013-02-15 15:10:00,36.6,31.6,30.02,WSW,248,0.0,3.0,82,0.00,,,0.00,Wunderground v.1.13,2013-02-15 20:10:00,
2013-02-15 15:15:00,36.6,31.9,30.02,West,270,0.0,2.0,83,0.00,,,0.00,Wunderground v.1.13,2013-02-15 20:15:00,
2013-02-15 15:20:00,36.6,31.9,30.02,SSW,203,0.0,2.0,83,0.00,,,0.00,Wunderground v.1.13,2013-02-15 20:20:00,
2013-02-15 15:25:00,36.6,31.6,30.02,WSW,248,1.0,5.0,82,0.00,,,0.00,Wunderground v.1.13,2013-02-15 20:25:00,
2013-02-15 15:30:00,36.4,31.4,30.02,WSW,248,1.0,5.0,82,0.00,,,0.00,Wunderground v.1.13,2013-02-15 20:30:00,
2013-02-15 15:35:00,36.3,31.3,30.02,SSW,203,1.0,4.0,82,0.00,,,0.00,Wunderground v.1.13,2013-02-15 20:35:00,
2013-02-15 15:40:00,36.4,31.4,30.02,SW,225,0.0,2.0,82,0.00,,,0.00,Wunderground v.1.13,2013-02-15 20:40:00,
2013-02-15 15:45:00,36.4,31.4,30.02,SSW,203,0.0,2.0,82,0.00,,,0.00,Wunderground v.1.13,2013-02-15 20:45:00,
2013-02-15 15:50:00,36.4,31.4,30.02,SW,225,1.0,4.0,82,0.00,,,0.00,Wunderground v.1.13,2013-02-15 20:50:00,
2013-02-15 15:55:00,36.3,31.3,30.02,WSW,248,1.0,3.0,82,0.00,,,0.00,Wunderground v.1.13,2013-02-15 20:55:00,
2013-02-15 16:00:00,36.3,31.3,30.02,WSW,248,0.0,3.0,82,0.00,,,0.00,Wunderground v.1.13,2013-02-15 21:00:00,
2013-02-15 16:05:00,36.3,31.3,30.02,WSW,248,1.0,6.0,82,0.00,,,0.00,Wunderground v.1.13,2013-02-15 21:05:00,
2013-02-15 16:10:00,36.2,30.6,30.02,WSW,248,2.0,4.0,80,0.00,,,0.00,Wunderground v.1.13,2013-02-15 21:10:00,
2013-02-15 16:15:00,36.2,30.3,30.02,SW,225,2.0,5.0,79,0.00,,,0.00,Wunderground v.1.13,2013-02-15 21:15:00,
2013-02-15 16:20:00,36.1,29.9,30.03,SW,225,2.0,7.0,78,0.00,,,0.00,Wunderground v.1.13,2013-02-15 21:20:00,
2013-02-15 16:25:00,36.1,30.2,30.03,WSW,248,0.0,2.0,79,0.00,,,0.00,Wunderground v.1.13,2013-02-15 21:25:00,
2013-02-15 16:30:00,36.0,30.1,30.03,WSW,248,0.0,3.0,79,0.00,,,0.00,Wunderground v.1.13,2013-02-15 21:30:00,
2013-02-15 16:35:00,35.9,30.0,30.03,WSW,248,0.0,3.0,79,0.00,,,0.00,Wunderground v.1.13,2013-02-15 21:35:00,
2013-02-15 16:40:00,35.8,29.9,30.03,WSW,248,0.0,1.0,79,0.00,,,0.00,Wunderground v.1.13,2013-02-15 21:40:00,
2013-02-15 16:45:00,35.7,29.8,30.03,N/A,-737280,0.0,0.0,79,0.00,,,0.00,Wunderground v.1.13,2013-02-15 21:45:00,
2013-02-15 16:50:00,35.5,29.6,30.03,N/A,-737280,0.0,0.0,79,0.00,,,0.00,Wunderground v.1.13,2013-02-15 21:50:00,
2013-02-15 16:55:00,35.4,29.5,30.03,N/A,-737280,0.0,0.0,79,0.00,,,0.00,Wunderground v.1.13,2013-02-15 21:55:00,
2013-02-15 17:00:00,35.2,29.3,30.03,N/A,-737280,0.0,0.0,79,0.00,,,0.00,Wunderground v.1.13,2013-02-15 22:00:00,
2013-02-15 17:05:00,35.1,29.6,30.03,N/A,-737280,0.0,0.0,80,0.00,,,0.00,Wunderground v.1.13,2013-02-15 22:05:00,
2013-02-15 17:10:00,35.1,29.6,30.03,N/A,-737280,0.0,0.0,80,0.00,,,0.00,Wunderground v.1.13,2013-02-15 22:10:00,
2013-02-15 17:15:00,35.0,29.5,30.03,N/A,-737280,0.0,0.0,80,0.00,,,0.00,Wunderground v.1.13,2013-02-15 22:15:00,
2013-02-15 17:20:00,35.0,29.8,30.03,N/A,-737280,0.0,0.0,81,0.00,,,0.00,Wunderground v.1.13,2013-02-15 22:20:00,
2013-02-15 17:25:00,35.0,29.5,30.03,N/A,-737280,0.0,0.0,80,0.00,,,0.00,Wunderground v.1.13,2013-02-15 22:25:00,
2013-02-15 17:30:00,34.9,29.4,30.03,WSW,248,0.0,1.0,80,0.00,,,0.00,Wunderground v.1.13,2013-02-15 22:30:00,
2013-02-15 17:35:00,34.9,29.4,30.03,WSW,248,0.0,1.0,80,0.00,,,0.00,Wunderground v.1.13,2013-02-15 22:35:00,
2013-02-15 17:40:00,35.0,29.5,30.03,N/A,-737280,0.0,0.0,80,0.00,,,0.00,Wunderground v.1.13,2013-02-15 22:40:00,
2013-02-15 17:45:00,34.9,29.4,30.03,N/A,-737280,0.0,0.0,80,0.00,,,0.00,Wunderground v.1.13,2013-02-15 22:45:00,
2013-02-15 17:50:00,34.8,29.3,30.03,N/A,-737280,0.0,0.0,80,0.00,,,0.00,Wunderground v.1.13,2013-02-15 22:50:00,
2013-02-15 17:55:00,34.6,29.1,30.03,N/A,-737280,0.0,0.0,80,0.00,,,0.00,Wunderground v.1.13,2013-02-15 22:55:00,
2013-02-15 18:00:00,34.4,28.6,30.03,N/A,-737280,0.0,0.0,79,0.00,,,0.00,Wunderground v.1.13,2013-02-15 23:00:00,
2013-02-15 18:05:00,34.4,28.6,30.03,N/A,-737280,0.0,0.0,79,0.00,,,0.00,Wunderground v.1.13,2013-02-15 23:05:00,
2013-02-15 18:10:00,34.2,28.7,30.03,N/A,-737280,0.0,0.0,80,0.00,,,0.00,Wunderground v.1.13,2013-02-15 23:10:00,
2013-02-15 18:15:00,34.2,28.7,30.04,N/A,-737280,0.0,0.0,80,0.00,,,0.00,Wunderground v.1.13,2013-02-15 23:15:00,
2013-02-15 18:20:00,34.1,28.6,30.04,N/A,-737280,0.0,0.0,80,0.00,,,0.00,Wunderground v.1.13,2013-02-15 23:20:00,
2013-02-15 18:25:00,34.2,28.7,30.04,N/A,-737280,0.0,0.0,80,0.00,,,0.00,Wunderground v.1.13,2013-02-15 23:25:00,
2013-02-15 18:30:00,34.2,29.0,30.04,N/A,-737280,0.0,0.0,81,0.00,,,0.00,Wunderground v.1.13,2013-02-15 23:30:00,
2013-02-15 18:35:00,34.2,29.0,30.04,N/A,-737280,0.0,0.0,81,0.00,,,0.00,Wunderground v.1.13,2013-02-15 23:35:00,
2013-02-15 18:40:00,34.3,29.1,30.04,N/A,-737280,0.0,0.0,81,0.00,,,0.00,Wunderground v.1.13,2013-02-15 23:40:00,
2013-02-15 18:45:00,34.4,29.2,30.04,WSW,248,0.0,1.0,81,0.00,,,0.00,Wunderground v.1.13,2013-02-15 23:45:00,
2013-02-15 18:50:00,34.4,29.2,30.04,N/A,-737280,0.0,0.0,81,0.00,,,0.00,Wunderground v.1.13,2013-02-15 23:50:00,
2013-02-15 18:55:00,34.4,29.5,30.04,SW,225,0.0,2.0,82,0.00,,,0.00,Wunderground v.1.13,2013-02-15 23:55:00,
2013-02-15 19:00:00,34.1,29.5,30.04,SW,225,1.0,4.0,83,0.00,,,0.00,Wunderground v.1.13,2013-02-16 00:00:00,
2013-02-15 19:05:00,33.5,29.5,30.04,WSW,248,2.0,5.0,85,0.00,,,0.00,Wunderground v.1.13,2013-02-16 00:05:00,
2013-02-15 19:10:00,33.0,29.6,30.05,WSW,248,2.0,5.0,87,0.00,,,0.00,Wunderground v.1.13,2013-02-16 00:10:00,
2013-02-15 19:15:00,32.7,29.5,30.04,SW,225,1.0,2.0,88,0.00,,,0.00,Wunderground v.1.13,2013-02-16 00:15:00,
2013-02-15 19:20:00,32.6,29.4,30.04,N/A,-737280,0.0,0.0,88,0.00,,,0.00,Wunderground v.1.13,2013-02-16 00:20:00,
2013-02-15 19:25:00,32.6,29.4,30.05,N/A,-737280,0.0,0.0,88,0.00,,,0.00,Wunderground v.1.13,2013-02-16 00:25:00,
2013-02-15 19:30:00,32.6,29.4,30.05,N/A,-737280,0.0,0.0,88,0.00,,,0.00,Wunderground v.1.13,2013-02-16 00:30:00,
2013-02-15 19:40:00,32.5,29.3,30.05,N/A,-737280,0.0,0.0,88,0.00,,,0.00,Wunderground v.1.13,2013-02-16 00:40:00,
2013-02-15 19:45:00,32.5,29.3,30.05,N/A,-737280,0.0,0.0,88,0.00,,,0.00,Wunderground v.1.13,2013-02-16 00:45:00,
2013-02-15 19:50:00,32.5,29.3,30.05,N/A,-737280,0.0,0.0,88,0.00,,,0.00,Wunderground v.1.13,2013-02-16 00:50:00,
2013-02-15 19:55:00,32.4,29.2,30.05,N/A,-737280,0.0,0.0,88,0.00,,,0.00,Wunderground v.1.13,2013-02-16 00:55:00,
2013-02-15 20:00:00,32.3,29.4,30.05,N/A,-737280,0.0,0.0,89,0.00,,,0.00,Wunderground v.1.13,2013-02-16 01:00:00,
2013-02-15 20:05:00,32.2,29.3,30.05,N/A,-737280,0.0,0.0,89,0.00,,,0.00,Wunderground v.1.13,2013-02-16 01:05:00,
2013-02-15 20:10:00,32.1,29.2,30.05,N/A,-737280,0.0,0.0,89,0.00,,,0.00,Wunderground v.1.13,2013-02-16 01:10:00,
2013-02-15 20:15:00,32.1,29.2,30.05,N/A,-737280,0.0,0.0,89,0.00,,,0.00,Wunderground v.1.13,2013-02-16 01:15:00,
2013-02-15 20:20:00,32.0,29.1,30.05,N/A,-737280,0.0,0.0,89,0.00,,,0.00,Wunderground v.1.13,2013-02-16 01:20:00,
2013-02-15 20:25:00,31.9,29.0,30.05,N/A,-737280,0.0,0.0,89,0.00,,,0.00,Wunderground v.1.13,2013-02-16 01:25:00,
2013-02-15 20:30:00,31.8,28.9,30.06,N/A,-737280,0.0,0.0,89,0.00,,,0.00,Wunderground v.1.13,2013-02-16 01:30:00,
2013-02-15 20:35:00,31.6,28.7,30.06,N/A,-737280,0.0,0.0,89,0.00,,,0.00,Wunderground v.1.13,2013-02-16 01:35:00,
2013-02-15 20:40:00,31.5,28.6,30.06,N/A,-737280,0.0,0.0,89,0.00,,,0.00,Wunderground v.1.13,2013-02-16 01:40:00,
2013-02-15 20:45:00,31.4,28.5,30.06,N/A,-737280,0.0,0.0,89,0.00,,,0.00,Wunderground v.1.13,2013-02-16 01:45:00,
2013-02-15 20:50:00,31.3,28.4,30.06,N/A,-737280,0.0,0.0,89,0.00,,,0.00,Wunderground v.1.13,2013-02-16 01:50:00,
2013-02-15 20:55:00,31.2,28.3,30.06,N/A,-737280,0.0,0.0,89,0.00,,,0.00,Wunderground v.1.13,2013-02-16 01:55:00,
2013-02-15 21:00:00,31.1,28.2,30.07,N/A,-737280,0.0,0.0,89,0.00,,,0.00,Wunderground v.1.13,2013-02-16 02:00:00,
2013-02-15 21:05:00,30.9,28.0,30.07,N/A,-737280,0.0,0.0,89,0.00,,,0.00,Wunderground v.1.13,2013-02-16 02:05:00,
2013-02-15 21:10:00,30.8,27.9,30.07,N/A,-737280,0.0,0.0,89,0.00,,,0.00,Wunderground v.1.13,2013-02-16 02:10:00,
2013-02-15 21:15:00,30.7,27.8,30.07,N/A,-737280,0.0,0.0,89,0.00,,,0.00,Wunderground v.1.13,2013-02-16 02:15:00,
2013-02-15 21:20:00,30.6,27.7,30.08,N/A,-737280,0.0,0.0,89,0.00,,,0.00,Wunderground v.1.13,2013-02-16 02:20:00,
2013-02-15 21:25:00,30.4,27.3,30.08,N/A,-737280,0.0,0.0,88,0.00,,,0.00,Wunderground v.1.13,2013-02-16 02:25:00,
2013-02-15 21:30:00,30.3,27.2,30.08,N/A,-737280,0.0,0.0,88,0.00,,,0.00,Wunderground v.1.13,2013-02-16 02:30:00,
2013-02-15 21:35:00,30.2,27.3,30.08,N/A,-737280,0.0,0.0,89,0.00,,,0.00,Wunderground v.1.13,2013-02-16 02:35:00,
2013-02-15 21:40:00,30.2,27.3,30.08,N/A,-737280,0.0,0.0,89,0.00,,,0.00,Wunderground v.1.13,2013-02-16 02:40:00,
2013-02-15 21:45:00,30.2,27.3,30.08,N/A,-737280,0.0,0.0,89,0.00,,,0.00,Wunderground v.1.13,2013-02-16 02:45:00,
2013-02-15 21:50:00,30.1,27.3,30.07,N/A,-737280,0.0,0.0,89,0.00,,,0.00,Wunderground v.1.13,2013-02-16 02:50:00,
2013-02-15 21:55:00,30.1,27.3,30.07,N/A,-737280,0.0,0.0,89,0.00,,,0.00,Wunderground v.1.13,2013-02-16 02:55:00,
2013-02-15 22:00:00,30.0,27.2,30.07,N/A,-737280,0.0,0.0,89,0.00,,,0.00,Wunderground v.1.13,2013-02-16 03:00:00,
2013-02-15 22:05:00,30.0,27.2,30.07,N/A,-737280,0.0,0.0,89,0.00,,,0.00,Wunderground v.1.13,2013-02-16 03:05:00,
2013-02-15 22:10:00,29.9,27.1,30.07,N/A,-737280,0.0,0.0,89,0.00,,,0.00,Wunderground v.1.13,2013-02-16 03:10:00,
2013-02-15 22:15:00,29.8,27.0,30.07,N/A,-737280,0.0,0.0,89,0.00,,,0.00,Wunderground v.1.13,2013-02-16 03:15:00,
2013-02-15 22:20:00,29.7,26.9,30.07,N/A,-737280,0.0,0.0,89,0.00,,,0.00,Wunderground v.1.13,2013-02-16 03:20:00,
2013-02-15 22:25:00,29.7,26.9,30.07,N/A,-737280,0.0,0.0,89,0.00,,,0.00,Wunderground v.1.13,2013-02-16 03:25:00,
2013-02-15 22:30:00,29.6,26.8,30.07,N/A,-737280,0.0,0.0,89,0.00,,,0.00,Wunderground v.1.13,2013-02-16 03:30:00,
2013-02-15 22:35:00,29.6,26.8,30.07,N/A,-737280,0.0,0.0,89,0.00,,,0.00,Wunderground v.1.13,2013-02-16 03:35:00,
2013-02-15 22:40:00,29.6,26.8,30.07,N/A,-737280,0.0,0.0,89,0.00,,,0.00,Wunderground v.1.13,2013-02-16 03:40:00,
2013-02-15 22:45:00,29.5,26.7,30.07,N/A,-737280,0.0,0.0,89,0.00,,,0.00,Wunderground v.1.13,2013-02-16 03:45:00,
2013-02-15 22:50:00,29.3,26.5,30.07,N/A,-737280,0.0,0.0,89,0.00,,,0.00,Wunderground v.1.13,2013-02-16 03:50:00,
2013-02-15 22:55:00,28.9,25.8,30.07,N/A,-737280,0.0,0.0,88,0.00,,,0.00,Wunderground v.1.13,2013-02-16 03:55:00,
2013-02-15 23:00:00,28.6,25.5,30.07,N/A,-737280,0.0,0.0,88,0.00,,,0.00,Wunderground v.1.13,2013-02-16 04:00:00,
2013-02-15 23:05:00,28.5,25.4,30.07,N/A,-737280,0.0,0.0,88,0.00,,,0.00,Wunderground v.1.13,2013-02-16 04:05:00,
2013-02-15 23:10:00,28.3,25.2,30.08,N/A,-737280,0.0,0.0,88,0.00,,,0.00,Wunderground v.1.13,2013-02-16 04:10:00,
2013-02-15 23:15:00,28.0,24.6,30.07,N/A,-737280,0.0,0.0,87,0.00,,,0.00,Wunderground v.1.13,2013-02-16 04:15:00,
2013-02-15 23:20:00,27.7,24.3,30.07,N/A,-737280,0.0,0.0,87,0.00,,,0.00,Wunderground v.1.13,2013-02-16 04:20:00,
2013-02-15 23:25:00,27.4,24.0,30.07,N/A,-737280,0.0,0.0,87,0.00,,,0.00,Wunderground v.1.13,2013-02-16 04:25:00,
2013-02-15 23:30:00,27.1,23.7,30.07,N/A,-737280,0.0,0.0,87,0.00,,,0.00,Wunderground v.1.13,2013-02-16 04:30:00,
2013-02-15 23:35:00,26.9,23.5,30.07,N/A,-737280,0.0,0.0,87,0.00,,,0.00,Wunderground v.1.13,2013-02-16 04:35:00,
2013-02-15 23:40:00,26.7,23.4,30.07,N/A,-737280,0.0,0.0,87,0.00,,,0.00,Wunderground v.1.13,2013-02-16 04:40:00,
2013-02-15 23:45:00,26.6,23.3,30.07,N/A,-737280,0.0,0.0,87,0.00,,,0.00,Wunderground v.1.13,2013-02-16 04:45:00,
2013-02-15 23:50:00,26.5,23.2,30.07,N/A,-737280,0.0,0.0,87,0.00,,,0.00,Wunderground v.1.13,2013-02-16 04:50:00,
2013-02-15 23:55:00,26.5,23.2,30.07,N/A,-737280,0.0,0.0,87,0.00,,,0.00,Wunderground v.1.13,2013-02-16 04:55:00,